Weather History for KMLI - January, 2014

Change the Weather History Date:

Monday, January 20, 2014

  Actual Average Record
Temperature  
Mean Temperature 26 °F 22 °F  
Max Temperature 38 °F 31 °F 63 °F (1906)
Min Temperature 14 °F 14 °F -21 °F (1985)
Degree Days  
Heating Degree Days 39 43  
Month to date heating degree days 954 849  
Since 1 July heating degree days 3670 3270  
Cooling Degree Days 0 0  
Month to date cooling degree days 0 0  
Year to date cooling degree days 0 0  
Moisture  
Dew Point 20 °F    
Average Humidity 76    
Maximum Humidity 88    
Minimum Humidity 64    
Precipitation  
Precipitation 0.10 in 0.05 in 1.83 in (1904)
Month to date precipitation 1.08 0.99  
Year to date precipitation 1.08 0.99  
Snow  
Snow 2.10 in 0.30 in - ()
Month to date snowfall 15.7 6.1  
Since 1 July snowfall 30.5 16.6  
Snow Depth T in    
Sea Level Pressure  
Sea Level Pressure 29.97 in    
Wind  
Wind Speed 10 mph (NNW)    
Max Wind Speed 24 mph    
Max Gust Speed 31 mph    
Visibility 5 miles    
Events Fog , Snow    
T = Trace of Precipitation, MM = Missing Value Source: NWS Daily Summary

Daily Weather History Graph

Daily Weather History Graph

Search for Another Location

Airport or City:

Trip Planner

Search our weather history database for the weather conditions in past years. The results will help you decide how hot, cold, wet, or windy it might be!

Date:

Astronomy

Jan. 20, 2014 Rise Set
Actual Time 7:23 AM CST 5:03 PM CST
Civil Twilight 6:53 AM CST 5:33 PM CST
Nautical Twilight 6:19 AM CST 6:07 PM CST
Astronomical Twilight 5:46 AM CST 6:40 PM CST
Moon 9:42 PM CST (1/20) 9:19 AM CST (1/20)
Length of Visible Light 10h 40m
Length of Day
9h 39m
Waning Gibbous, 82% of the Moon is Illuminated
Jan 20
Waning Gibbous
Jan 23
Last Quarter
Jan 30
New
Feb 6
First Quarter
Feb 14
Full

Hourly Weather History & Observations

Time (CST) Temp. Windchill Dew Point Humidity Pressure Visibility Wind Dir Wind Speed Gust Speed Precip Events Conditions
12:08 AM 37.4 °F 28.5 °F 28.4 °F 70% 29.70 in 10.0 mi WNW 15.0 mph 21.9 mph N/A   Mostly Cloudy
12:52 AM 36.0 °F 25.3 °F 28.9 °F 76% 29.73 in 10.0 mi NW 19.6 mph 26.5 mph N/A   Overcast
1:52 AM 35.1 °F 25.9 °F 28.0 °F 76% 29.76 in 10.0 mi WNW 13.8 mph - N/A   Mostly Cloudy
2:04 AM 35.6 °F 25.9 °F 28.4 °F 75% 29.75 in 10.0 mi WNW 16.1 mph - N/A   Scattered Clouds
2:52 AM 34.0 °F 26.6 °F 26.1 °F 73% 29.79 in 10.0 mi NW 9.2 mph - N/A   Clear
3:52 AM 32.0 °F 23.6 °F 27.0 °F 82% 29.81 in 10.0 mi WNW 10.4 mph - N/A   Clear
4:52 AM 30.0 °F 21.7 °F 25.0 °F 82% 29.84 in 10.0 mi WNW 9.2 mph - N/A   Clear
5:52 AM 28.9 °F 21.9 °F 24.1 °F 82% 29.85 in 10.0 mi West 6.9 mph - N/A   Clear
6:52 AM 28.0 °F 22.8 °F 23.0 °F 81% 29.86 in 10.0 mi West 4.6 mph - N/A   Clear
7:52 AM 25.0 °F 19.3 °F 21.9 °F 88% 29.86 in 7.0 mi SW 4.6 mph - N/A   Clear
8:52 AM 32.0 °F 25.6 °F 26.1 °F 79% 29.90 in 9.0 mi West 6.9 mph - N/A   Clear
9:52 AM 34.0 °F 26.0 °F 26.1 °F 73% 29.93 in 9.0 mi West 10.4 mph - N/A   Clear
10:52 AM 37.0 °F 29.8 °F 28.0 °F 70% 29.94 in 9.0 mi WNW 10.4 mph - N/A   Clear
11:52 AM 36.0 °F 28.0 °F 26.1 °F 67% 29.94 in 10.0 mi NW 11.5 mph - N/A   Mostly Cloudy
12:52 PM 34.0 °F 25.5 °F 25.0 °F 70% 29.94 in 10.0 mi NNW 11.5 mph - N/A   Overcast
1:52 PM 35.1 °F 27.4 °F 25.0 °F 67% 29.92 in 10.0 mi NW 10.4 mph - N/A   Clear
2:52 PM 34.0 °F 27.2 °F 25.0 °F 70% 29.94 in 10.0 mi NW 8.1 mph - N/A   Overcast
3:52 PM 33.1 °F 26.1 °F 25.0 °F 72% 29.94 in 10.0 mi NNW 8.1 mph - N/A   Overcast
4:52 PM 33.1 °F 30.0 °F 25.0 °F 72% 29.95 in 10.0 mi NNW 3.5 mph - N/A   Overcast
5:52 PM 33.1 °F 26.9 °F 25.0 °F 72% 29.96 in 9.0 mi North 6.9 mph - N/A   Overcast
6:15 PM 30.2 °F 25.4 °F 26.6 °F 86% 29.94 in 2.0 mi North 4.6 mph - 0.00 in Snow Light Snow
6:38 PM 30.2 °F - 28.4 °F 93% 29.95 in 1.0 mi Calm Calm - 0.01 in Snow Light Snow
6:45 PM 30.2 °F - 28.4 °F 93% 29.95 in 0.8 mi Calm Calm - 0.01 in Snow Light Snow
6:52 PM 30.0 °F 26.5 °F 28.0 °F 92% 29.97 in 0.8 mi NNE 3.5 mph - 0.02 in Snow Light Snow
7:46 PM 24.8 °F 11.5 °F 21.2 °F 86% 29.98 in 0.5 mi NE 17.3 mph 27.6 mph 0.04 in Fog , Snow Snow
7:52 PM 24.1 °F 11.0 °F 21.0 °F 88% 30.01 in 0.8 mi NE 16.1 mph 28.8 mph 0.04 in Snow Light Snow
7:55 PM 24.8 °F 12.4 °F 21.2 °F 86% 29.99 in 0.8 mi NE 15.0 mph 28.8 mph 0.00 in Snow Light Snow
8:07 PM 21.2 °F 5.6 °F 19.4 °F 93% 29.99 in 1.0 mi NNE 20.7 mph 27.6 mph 0.00 in Snow Light Snow
8:31 PM 19.4 °F 3.2 °F 15.8 °F 86% 30.01 in 1.2 mi NNE 20.7 mph 26.5 mph 0.00 in Snow Light Snow
8:52 PM 19.0 °F 2.7 °F 15.1 °F 85% 30.05 in 1.2 mi NNE 20.7 mph 27.6 mph 0.00 in Snow Light Snow
9:31 PM 17.6 °F 5.0 °F 12.2 °F 79% 30.07 in 1.8 mi NNE 11.5 mph 25.3 mph 0.01 in Snow Light Snow
9:47 PM 17.6 °F 3.2 °F 12.2 °F 79% 30.07 in 1.2 mi NNE 15.0 mph 23.0 mph 0.01 in Snow Light Snow
9:52 PM 16.0 °F 0.6 °F 10.9 °F 81% 30.10 in 1.0 mi NNE 16.1 mph 21.9 mph 0.01 in Snow Light Snow
9:57 PM 15.8 °F 0.3 °F 10.4 °F 79% 30.08 in 0.8 mi NNE 16.1 mph 21.9 mph 0.00 in Snow Light Snow
10:09 PM 15.8 °F -1.5 °F 10.4 °F 79% 30.08 in 1.0 mi NNE 20.7 mph 26.5 mph 0.00 in Snow Light Snow
10:16 PM 15.8 °F 0.9 °F 10.4 °F 79% 30.09 in 1.2 mi NNE 15.0 mph 26.5 mph 0.00 in Snow Light Snow
10:29 PM 15.8 °F 0.9 °F 10.4 °F 79% 30.10 in 1.0 mi NNE 15.0 mph 25.3 mph 0.00 in Snow Light Snow
10:36 PM 15.8 °F 0.9 °F 8.6 °F 73% 30.11 in 1.5 mi NNE 15.0 mph 29.9 mph 0.00 in Snow Light Snow
10:52 PM 15.1 °F -0.1 °F 9.0 °F 77% 30.15 in 2.5 mi NNE 15.0 mph 21.9 mph 0.00 in Snow Light Snow
11:03 PM 15.8 °F 1.4 °F 8.6 °F 73% 30.13 in 1.5 mi NNE 13.8 mph 20.7 mph 0.00 in Snow Light Snow
11:10 PM 15.8 °F -1.5 °F 8.6 °F 73% 30.13 in 1.2 mi NNE 20.7 mph 26.5 mph 0.00 in Snow Light Snow
11:41 PM 14.0 °F -0.8 °F 8.6 °F 79% 30.15 in 0.8 mi NNE 13.8 mph - 0.00 in   Haze
11:52 PM 14.0 °F -0.2 °F 9.0 °F 80% 30.18 in 1.5 mi NNE 12.7 mph 21.9 mph 0.00 in   Haze